Weather Roundup
Issued by NWS

Home | Current Version | Previous Version | Text Only | Print | Product List | Glossary On
Versions: 1 2 3 4 5 6 7 8 9 10 11 12 13 14 15 16 17 18 19 20 21 22 23 24 25 26 27 28 29 30 31 32 33 34 35 36 37 38 39 40 41 42 43 44 45 46 47 48 49 50
000
NZUS93 KARX 271910
HRRWXR

CURRENT HOURLY OBSERVATIONS ACROSS
MUCH OF THE UPPER MISSISSIPPI VALLEY
NATIONAL WEATHER SERVICE LA CROSSE WI
200 PM CDT WED MAY 27 2015


...SOUTHEAST MINNESOTA...


CITY           SKY/WX    TMP DP  RH WIND       PRES   REMARKS
ROCHESTER      SUNNY     76  61  59 W15       30.01R
ROCHESTER/MAYO FAIR      76  58  52 SW8G18    29.99S
WINONA         SUNNY     77  57  50 W8        29.98S
AUSTIN         SUNNY     75  61  60 SW10G16   30.01R
ALBERT LEA     SUNNY     77  59  53 SW8       30.00S
DODGE CENTER   SUNNY     77  57  50 SW10      30.00S
PRESTON        SUNNY     74  59  58 SW14      30.02S
OWATONNA       SUNNY     77  59  53 W14       30.00R
FARIBAULT      SUNNY     77  61  57 SW10      29.99S
$$

...ELSEWHERE IN MINNESOTA...


CITY           SKY/WX    TMP DP  RH WIND       PRES   REMARKS
MINNEAPOLIS    SUNNY     80  57  45 SW9       29.95S
INTNL FALLS    MOSUNNY   77  50  38 NW13      29.91R
DULUTH         MOSUNNY   81  50  33 W10G25    29.89R
RED WING       SUNNY     79  57  47 SW7       29.95S
REDWOOD FALLS  SUNNY     82  54  37 W8        29.97S
MANKATO        SUNNY     77  57  50 W10       29.99S
WORTHINGTON    SUNNY     81  46  30 W8        30.02S
FAIRMONT       SUNNY     81  52  36 W12       30.00S
$$

...SOUTHWEST WISCONSIN...


CITY           SKY/WX    TMP DP  RH WIND       PRES   REMARKS
LA CROSSE      MOSUNNY   79  59  50 S9        29.98S
PRAIRIE DU CHI MOSUNNY   76  57  52 W6        30.02S
BOSCOBEL       CLOUDY    75  57  53 VRB7      30.02S
LONE ROCK      SUNNY     74  55  51 VRB3      30.02R
PLATTEVILLE    PTSUNNY   73  58  57 NW6       30.03S
FORT MC COY    SUNNY     75  55  48 W9        30.00S
CAMP DOUGLAS   MOSUNNY   75  61  60 SW13      29.99R
VIROQUA        MOCLDY    74  58  59 W8        30.02S
WIS DELLS      SUNNY     72  52  49 CALM      30.02R
$$

...ELSEWHERE IN WISCONSIN...


CITY           SKY/WX    TMP DP  RH WIND       PRES   REMARKS
MILWAUKEE      PTSUNNY   68  55  63 NW13      29.97R
MADISON        MOSUNNY   71  52  50 N7        30.01R
GREEN BAY      PTSUNNY   70  60  70 W13       29.94R
EAU CLAIRE     SUNNY     76  59  55 SW10      29.95S
BLACK RVR FLS  FAIR      77  56  47 W12       29.98R
MEDFORD        MOSUNNY   69  60  72 SW7       29.96S
WAUSAU         FAIR      71  59  65 W13       29.95R
WIS RAPIDS     PTSUNNY   76  56  49 W12G17    29.98S
MARSHFIELD     MOSUNNY   73  57  57 W14       29.97S
RICE LAKE      MOSUNNY   77  57  50 W10       29.96R
$$

...NORTHEAST IOWA...


CITY           SKY/WX    TMP DP  RH WIND       PRES   REMARKS
DECORAH        PTSUNNY   75  59  57 VRB7G16   30.02S
MASON CITY     SUNNY     78  59  51 SW15      30.03S
CHARLES CITY   SUNNY     77  61  57 SW14      30.03S
OELWEIN        MOSUNNY   75  59  57 W10G17    30.05S
$$

...ELSEWHERE IN IOWA...


CITY           SKY/WX    TMP DP  RH WIND       PRES   REMARKS
DES MOINES     MOSUNNY   80  54  40 W7        30.05S
IOWA CITY      SUNNY     76  56  49 NW12      30.05F
FORT DODGE     SUNNY     79  61  53 W7        30.05R
$$

...NORTHERN ILLINOIS...


CITY           SKY/WX    TMP DP  RH WIND       PRES   REMARKS
CHICAGO-OHARE  PTSUNNY   70  56  61 W16G25    29.98S
CHICAGO-MIDWAY PTSUNNY   74  61  63 W16       29.98F
MOLINE         SUNNY     77  57  50 NW8G18    30.02S
ROCKFORD       PTSUNNY   74  58  57 NW16      30.03R
PEORIA         MOSUNNY   78  60  53 W10       30.04R
$$

NOTE: "FAIR" INDICATES FEW OR NO CLOUDS BELOW 12,000 FEET WITH NO
SIGNIFICANT WEATHER AND/OR OBSTRUCTIONS TO VISIBILITY. WIND
SPEEDS ARE IN MILES-PER-HOUR.



USA.gov is the U.S. government's official web portal to all federal, state and local government web resources and services.